Regional Weather Roundup
Issued by NWS

Home | Current Version | Previous Version | Graphics & Text | Print | Product List | Glossary On
Versions: 1 2 3 4 5 6 7 8 9 10 11 12 13 14 15 16 17 18 19 20 21 22 23 24 25 26 27 28 29 30 31 32 33 34 35 36 37 38 39 40 41 42 43 44 45 46 47 48 49 50
000
ASUS43 KIND 182109
RWRIN

WEATHER ROUNDUP FOR INDIANA
NATIONAL WEATHER SERVICE INDIANAPOLIS IN
500 PM EDT SAT APR 18 2015

NOTE: "FAIR" INDICATES FEW OR NO CLOUDS BELOW 12,000 FEET WITH NO
SIGNIFICANT WEATHER AND/OR OBSTRUCTIONS TO VISIBILITY.

* - STATION DOES NOT REPORT WEATHER SUCH AS PRECIPITATION OR FOG.

+ - STATION NOT QUALITY CONTROLLED BY THE NATIONAL WEATHER SERVICE.
    USE DATA WITH CAUTION...ESPECIALLY DEWPOINT AND RELATIVE
    HUMIDITY OBSERVATIONS.

INZ001>003-010>013-019-020-182200-
NORTHWEST INDIANA

CITY           SKY/WX    TMP DP  RH WIND       PRES   REMARKS
GARY /AIRPORT/ PTSUNNY   48  34  57 N10G22    30.07F
KNOX *+        CLOUDY    66  27  22 NW8       29.99F
MICHIGAN CITY+ CLOUDY    50  32  50 N7        30.04F
MONTICELLO +   PTSUNNY   77  50  38 S6        29.97F
RENSSELAER +   CLOUDY    72  50  46 N14       29.98F
VALPARAISO     CLOUDY    59  40  49 N8        30.02F

$$

LMZ046-743>745-182200-
SOUTHERN LAKE MICHIGAN

STATION/POSITION TIME  TEMP WIND        PRES
                       AIR  DIR/SP/G
                 (UTC) (F)  (DEG/KT/KT) (MB)
BURNS HARBOR     2000   42  350/  8/  9 1019.0S
MICHIGAN CITY    2100   44  290/  5/  6   N/A
4NW MICH CITY    2100   41  330/  4/  8   N/A

$$

INZ004-005-014>016-021>024-182200-
NORTH CENTRAL INDIANA

CITY           SKY/WX    TMP DP  RH WIND       PRES   REMARKS
ELKHART        PTSUNNY   77  41  27 SE6       30.00F
GOSHEN         CLOUDY    77  47  34 E5        29.99F
LOGANSPORT +   MOSUNNY   77  45  31 E5        29.98F
PERU/GRISSOM   MOSUNNY   78  48  34 E7        29.97F
ROCHESTER +    PTSUNNY   81  45  28 CALM      29.98F
SOUTH BEND     PTSUNNY   77  46  33 NW5       30.00F
WARSAW +       CLOUDY    75  50  41 E5        29.99F

$$

INZ006>009-017-018-025>027-182200-
NORTHEAST INDIANA

CITY           SKY/WX    TMP DP  RH WIND       PRES   REMARKS
ANGOLA *+      MOSUNNY   75  45  33 E9        30.01S
AUBURN +       CLOUDY    75  45  33 E7        30.01F
FORT WAYNE     CLOUDY    77  51  40 E9        30.00F
HUNTINGTON +   PTSUNNY   76  41  28 CALM      29.98F

$$

INZ028-029-035-036-043>045-051>053-182200-
WEST CENTRAL INDIANA

CITY           SKY/WX    TMP DP  RH WIND       PRES   REMARKS
CRAWFORDSVL +  PTSUNNY   73  38  27 SE9       29.99S
GREENCASTLE +  CLOUDY    72  41  33 E9        29.98F
LAFAYETTE      PTSUNNY   76  48  37 E10       29.96F
TERRE HAUTE    CLOUDY    75  47  36 E6        29.96F

$$

INZ030>032-037>040-046>048-054>057-064-065-182200-
CENTRAL INDIANA

CITY           SKY/WX    TMP DP  RH WIND       PRES   REMARKS
CP ATTERBURY + CLOUDY    75  45  33 E8        29.98F
COLUMBUS       PTSUNNY   75  39  27 E9        29.97F
FISHERS *+     CLOUDY    75  52  43 E7        29.99F
FRANKFORT +    PTSUNNY   77  47  33 E8        30.00F
GREENWOOD *+   CLOUDY    75  41  29 E8        29.99F
INDIANAPOLIS   CLOUDY    75  46  35 E8        29.97F
-EAGLE CREEK   CLOUDY    74  47  38 E12       29.98F
KOKOMO *+      MOSUNNY   77  48  36 SE6       29.98F
MARION +       PTSUNNY   76  42  29 S3        29.99F
MT COMFORT *+  CLOUDY    75  30  19 E7        29.99F
SHELBYVILLE    CLOUDY    79  46  31 E8        29.98F
ZIONSVILLE +   CLOUDY    77  43  29 SE7       29.99F

$$

INZ033-034-041-042-049-050-058-059-182200-
EAST CENTRAL INDIANA

CITY           SKY/WX    TMP DP  RH WIND       PRES   REMARKS
MUNCIE         PTSUNNY   78  47  33 E12       29.99F

$$

INZ060-061-067>069-081>083-085>088-182200-
SOUTHWEST INDIANA

CITY           SKY/WX    TMP DP  RH WIND       PRES   REMARKS
EVANSVILLE     MOSUNNY   80  52  37 E9        29.92F
HUNTINGBURG *+ MOSUNNY   81  54  39 NE5       29.92F
WASHINGTON +   PTSUNNY   79  40  25 E5        29.93F

$$

INZ062-063-066-070>080-084-089>092-182200-
SOUTH CENTRAL AND SOUTHEAST INDIANA

CITY           SKY/WX    TMP DP  RH WIND       PRES   REMARKS
BEDFORD +      PTSUNNY   79  37  22 E12       29.95F
BLOOMINGTON    CLOUDY    77  42  28 E14       29.96F
MADISON *+     PTSUNNY   79  34  19 E8        29.98F
NORTH VERNON + PTSUNNY   75  43  31 NE10      29.97F

$$



USA.gov is the U.S. government's official web portal to all federal, state and local government web resources and services.